カタログに戻る

SL-12 R/B(2)

運用中GEO
NORAD 15963·ROCKET BODY·🇷🇺 Russia

打ち上げ Aug 8, 1985 から Baikonur Cosmodrome

Loading…

TLE

最新Source: Space-Track

元期: Sep 14, 2026, 13:28 UTC

1 15963U 85070F   26257.56123427 -.00000090  00000-0  00000+0 0  9995
2 15963  10.6492 320.6007 0010295 193.1150 331.4818  0.97803640120450

AllMySatでSL-12 R/B(2)をリアルタイム追跡

Download on the App Store